TimeMDT,TemperatureF,Dew PointF,Humidity,Sea Level PressureIn,VisibilityMPH,Wind Direction,Wind SpeedMPH,Gust SpeedMPH,PrecipitationIn,Events,Conditions,WindDirDegrees,DateUTC
12:15 AM,55.4,42.8,63,30.26,10.0,NNE,6.9,-,N/A,,Clear,20,2013-09-11 06:15:00
12:35 AM,53.6,42.8,67,30.27,10.0,ESE,3.5,-,N/A,,Clear,110,2013-09-11 06:35:00
12:55 AM,53.6,42.8,67,30.27,10.0,Calm,Calm,-,N/A,,Clear,0,2013-09-11 06:55:00
1:15 AM,55.4,42.8,63,30.27,10.0,NNE,3.5,-,N/A,,Clear,30,2013-09-11 07:15:00
1:35 AM,53.6,44.6,72,30.28,10.0,NNE,5.8,-,N/A,,Clear,20,2013-09-11 07:35:00
1:55 AM,53.6,44.6,72,30.28,10.0,North,9.2,-,N/A,,Clear,350,2013-09-11 07:55:00
2:15 AM,53.6,44.6,72,30.28,10.0,North,10.4,-,N/A,,Clear,350,2013-09-11 08:15:00
2:35 AM,51.8,44.6,76,30.28,10.0,North,11.5,-,N/A,,Clear,350,2013-09-11 08:35:00
3:15 AM,51.8,44.6,76,30.27,10.0,North,12.7,18.4,N/A,,Clear,360,2013-09-11 09:15:00
3:35 AM,50.0,44.6,82,30.26,10.0,North,17.3,-,N/A,,Clear,360,2013-09-11 09:35:00
3:55 AM,51.8,42.8,71,30.27,10.0,North,19.6,-,N/A,,Clear,10,2013-09-11 09:55:00
4:15 AM,51.8,42.8,71,30.28,10.0,North,12.7,-,N/A,,Clear,10,2013-09-11 10:15:00
4:35 AM,48.2,42.8,82,30.28,10.0,North,15.0,-,N/A,,Clear,10,2013-09-11 10:35:00
5:15 AM,48.2,42.8,82,30.28,10.0,North,16.1,-,N/A,,Clear,10,2013-09-11 11:15:00
5:35 AM,51.8,42.8,71,30.27,10.0,NNE,16.1,-,N/A,,Clear,20,2013-09-11 11:35:00
6:35 AM,48.2,42.8,82,30.28,10.0,North,16.1,-,N/A,,Clear,350,2013-09-11 12:35:00
6:57 AM,46.4,41.0,81,30.29,10.0,North,15.0,-,N/A,,Clear,350,2013-09-11 12:57:00
7:51 AM,48.2,42.8,82,30.28,10.0,NNW,18.4,-,N/A,,Clear,340,2013-09-11 13:51:00
8:53 AM,53.6,44.6,72,30.30,10.0,North,12.7,24.2,N/A,,Clear,350,2013-09-11 14:53:00
9:54 AM,62.6,44.6,52,30.30,10.0,North,17.3,21.9,N/A,,Clear,360,2013-09-11 15:54:00
10:52 AM,66.2,42.8,43,30.30,10.0,North,20.7,28.8,N/A,,Clear,350,2013-09-11 16:52:00
11:53 AM,69.8,41.0,35,30.30,10.0,NNE,16.1,27.6,N/A,,Clear,30,2013-09-11 17:53:00
12:13 PM,71.6,41.0,33,30.29,10.0,NNE,16.1,21.9,N/A,,Clear,30,2013-09-11 18:13:00
12:51 PM,73.4,42.8,33,30.29,10.0,NE,15.0,24.2,N/A,,Clear,50,2013-09-11 18:51:00
1:55 PM,73.4,41.0,31,30.28,10.0,East,16.1,24.2,N/A,,Mostly Cloudy,80,2013-09-11 19:55:00
2:57 PM,73.4,39.2,29,30.27,10.0,SSE,18.4,25.3,N/A,,Mostly Cloudy,160,2013-09-11 20:57:00
3:52 PM,69.8,41.0,35,30.29,10.0,ENE,17.3,-,N/A,,Overcast,70,2013-09-11 21:52:00
4:51 PM,62.6,51.8,68,30.30,8.0,SSE,9.2,-,N/A,Rain,Light Rain,160,2013-09-11 22:51:00
5:51 PM,57.2,53.6,88,30.31,10.0,West,6.9,-,N/A,,Mostly Cloudy,270,2013-09-11 23:51:00
6:51 PM,59.0,53.6,82,30.31,10.0,SW,5.8,-,N/A,,Mostly Cloudy,220,2013-09-12 00:51:00
8:10 PM,57.2,53.6,88,30.32,10.0,WNW,5.8,-,N/A,,Mostly Cloudy,290,2013-09-12 02:10:00
8:55 PM,57.2,51.8,82,30.34,10.0,North,5.8,-,0.07,,Overcast,10,2013-09-12 02:55:00
9:15 PM,60.8,48.2,63,30.34,10.0,North,11.5,-,N/A,,Overcast,10,2013-09-12 03:15:00
9:35 PM,60.8,46.4,59,30.33,10.0,NNE,12.7,19.6,N/A,,Overcast,20,2013-09-12 03:35:00
9:55 PM,60.8,46.4,59,30.33,10.0,NNE,13.8,-,N/A,,Overcast,30,2013-09-12 03:55:00
10:35 PM,59.0,48.2,67,30.34,10.0,North,12.7,-,N/A,,Overcast,10,2013-09-12 04:35:00
10:56 PM,57.2,48.2,72,30.34,10.0,North,11.5,18.4,N/A,,Overcast,10,2013-09-12 04:56:00
11:15 PM,57.2,48.2,72,30.34,10.0,North,9.2,-,N/A,,Overcast,350,2013-09-12 05:15:00
11:35 PM,57.2,48.2,72,30.35,10.0,North,10.4,-,N/A,,Overcast,360,2013-09-12 05:35:00
11:55 PM,57.2,48.2,72,30.35,10.0,North,15.0,-,N/A,,Overcast,360,2013-09-12 05:55:00